This is the latest recevied weather packets stored in our database for station/object SP1BMW-13. If no packets are shown the sender has not sent any weather packets the latest 10 day(s).
| Time | Temp. | Humidity | Pressure | Rain* | Wind** | Luminosity | Snow |
|---|---|---|---|---|---|---|---|
| 1787722993 | 17.22° C | 73% | 1021.1 hPa | 0 mm | 0.89 m/s, 44° | 71 W/m² | - |
| 1787722934 | 16.67° C | 74% | 1021.1 hPa | 0 mm | 0 m/s | 70 W/m² | - |
| 1787722873 | 16.67° C | 75% | 1021 hPa | 0 mm | 0.45 m/s, 40° | 68 W/m² | - |
| 1787722813 | 16.67° C | 76% | 1021.2 hPa | 0 mm | 0.45 m/s, 32° | 67 W/m² | - |
| 1787722753 | 16.67° C | 75% | 1021.2 hPa | 0 mm | 0 m/s | 66 W/m² | - |
| 1787722693 | 16.67° C | 75% | 1021.1 hPa | 0 mm | 0 m/s | 65 W/m² | - |
| 1787722633 | 16.67° C | 76% | 1021 hPa | 0 mm | 0 m/s | 64 W/m² | - |
| 1787722573 | 16.67° C | 75% | 1021.2 hPa | 0 mm | 0.89 m/s, 25° | 63 W/m² | - |
| 1787722513 | 16.11° C | 76% | 1021.1 hPa | 0 mm | 0 m/s | 62 W/m² | - |
| 1787722453 | 16.11° C | 75% | 1021.1 hPa | 0 mm | 0.45 m/s, 51° | 61 W/m² | - |
| 1787722393 | 16.11° C | 76% | 1021.1 hPa | 0 mm | 0.45 m/s, 13° | 61 W/m² | - |
| 1787722333 | 16.11° C | 76% | 1021.1 hPa | 0 mm | 0.89 m/s, 43° | 60 W/m² | - |
| 1787722273 | 16.11° C | 77% | 1021.3 hPa | 0 mm | 0.89 m/s, 113° | 59 W/m² | - |
| 1787722213 | 16.11° C | 76% | 1021.1 hPa | 0 mm | 0.45 m/s, 46° | 58 W/m² | - |
| 1787722153 | 16.11° C | 76% | 1020.9 hPa | 0 mm | 0.89 m/s, 39° | 58 W/m² | - |
| 1787722093 | 16.11° C | 76% | 1021 hPa | 0 mm | 0.45 m/s, 46° | 57 W/m² | - |
| 1787722034 | 16.11° C | 77% | 1021 hPa | 0 mm | 0.45 m/s, 39° | 56 W/m² | - |
| 1787721974 | 16.11° C | 77% | 1021.1 hPa | 0 mm | 0.45 m/s, 51° | 56 W/m² | - |
| 1787721913 | 16.11° C | 77% | 1020.9 hPa | 0 mm | 0.45 m/s, 45° | 55 W/m² | - |
| 1787721853 | 16.11° C | 78% | 1021.1 hPa | 0 mm | 0 m/s | 54 W/m² | - |
| 1787721793 | 15.56° C | 77% | 1020.9 hPa | 0 mm | 0 m/s | 54 W/m² | - |
| 1787721733 | 15.56° C | 77% | 1021 hPa | 0 mm | 0.45 m/s, 42° | 53 W/m² | - |
| 1787721673 | 15.56° C | 78% | 1021.1 hPa | 0 mm | 0 m/s | 53 W/m² | - |
| 1787721613 | 15.56° C | 78% | 1021 hPa | 0 mm | 0.45 m/s, 65° | 52 W/m² | - |
| 1787721553 | 15.56° C | 78% | 1021.1 hPa | 0 mm | 0.89 m/s, 36° | 51 W/m² | - |
* Rain latest hour (hover to see other rain measurements)
** Current wind speed in m/s (hover to see current wind gust speed)